Flag for Italy Weather past 2 weeks in Catania, Italy

Now
64 °F

Clear.


Feels Like: 64 °F
Forecast: 66 / 87 °F
Wind: 6 mph from West

Location: Catania / Fontanarossa

Current Time: Jul 25, 2014 at 6:46:57 AM

Latest Report: Jul 25, 2014 at 5:50 AM


Visibility: 10 mi

Pressure: 29.89 "Hg

Humidity: 83%

Dew point: 59 °F

Location of CataniaLocation

Historic Weather in Catania — Graph

°F

Catania temperature yesterday

Maximum temperature yesterday: 84 °F (at 11:50 AM)
Minimum temperature yesterday: 64 °F (at 4:20 AM)
Average temperature yesterday: 75 °F

Past Weeks' High & Low Weather Summary

 TemperatureHumidityPressure
High95 °F (Jul 21, 11:20 AM)100% (Jul 25, 1:50 AM)30.01 "Hg (Jul 25, 1:50 AM)
Low59 °F (Jul 14, 5:50 AM)19% (Jul 21, 11:20 AM)29.74 "Hg (Jul 10, 5:20 PM)
Average76 °F59%29.91 "Hg
* Reported Jul 10 5:20 AM — Jul 25 5:20 AM, Catania, Weather by CustomWeather, © 2014

Note: Actual official high and low records may vary slightly from our data, if they occured in-between our weather recording intervals... More about our weather records

Advertising

Catania weather history for previous 24 hours

 ConditionsComfort  
Time TempWeatherWind HumidityBarometerVisibility
5:20 AM
Jul 25
63 °FClear.5 mph88%29.89 "Hg10 mi
4:50 AM63 °FClear.6 mph88%29.89 "Hg10 mi
4:20 AM64 °FClear.8 mph83%29.86 "Hg10 mi
3:50 AM66 °FClear.6 mph83%29.89 "Hg10 mi
3:20 AM66 °FClear.5 mph88%29.89 "Hg10 mi
2:50 AM66 °FClear.6 mph88%29.89 "Hg10 mi
2:20 AM68 °FClear.6 mph88%29.89 "Hg10 mi
1:50 AM73 °FClear.2 mph100%29.89 "Hg10 mi
1:20 AM70 °FClear.6 mph83%29.89 "Hg10 mi
12:50 AM70 °FClear.5 mph83%29.92 "Hg10 mi
12:20 AM70 °FClear.5 mph88%29.92 "Hg10 mi
11:50 PM
Jul 24
72 °FClear.No wind88%29.92 "Hg10 mi
11:20 PM73 °FClear.2 mph83%29.92 "Hg10 mi
10:50 PM73 °FClear.3 mph83%29.92 "Hg10 mi
10:20 PM73 °FClear.5 mph83%29.92 "Hg10 mi
9:50 PM73 °FClear.6 mph83%29.92 "Hg10 mi
9:20 PM73 °FClear.6 mph83%29.89 "Hg10 mi
8:50 PM73 °FSunny.6 mph83%29.89 "Hg10 mi
8:20 PM75 °FSunny.8 mph78%29.89 "Hg10 mi
7:50 PM75 °FSunny.9 mph78%29.89 "Hg10 mi
7:20 PM77 °FPassing clouds.10 mph69%29.86 "HgN/A
6:50 PM77 °FPassing clouds.10 mph65%29.86 "HgN/A
6:20 PM79 °FPassing clouds.13 mph65%29.86 "HgN/A
5:50 PM79 °FPassing clouds.14 mph70%29.86 "HgN/A
5:20 PM79 °FPassing clouds.14 mph70%29.86 "HgN/A
4:50 PM81 °FScattered clouds.14 mph66%29.86 "HgN/A
4:20 PM79 °FPassing clouds.15 mph65%29.86 "HgN/A
3:50 PM81 °FPassing clouds.15 mph62%29.86 "HgN/A
3:20 PM81 °FPassing clouds.14 mph62%29.86 "HgN/A
2:50 PM82 °FPassing clouds.15 mph45%29.86 "HgN/A
1:50 PM84 °FPassing clouds.15 mph40%29.86 "HgN/A
1:20 PM82 °FPassing clouds.16 mph48%29.86 "HgN/A
12:50 PM82 °FPassing clouds.14 mph48%29.86 "HgN/A
12:20 PM82 °FPassing clouds.10 mph40%29.86 "HgN/A
11:50 AM84 °FSunny.9 mph43%29.86 "Hg10 mi
11:20 AM82 °FPassing clouds.9 mph48%29.89 "HgN/A
10:50 AM82 °FSunny.6 mph48%29.89 "Hg10 mi
10:20 AM81 °FSunny.5 mph51%29.89 "Hg10 mi
9:50 AM79 °FSunny.5 mph58%29.89 "Hg10 mi
9:20 AM79 °FSunny.2 mph58%29.89 "Hg10 mi
8:50 AM77 °FSunny.3 mph61%29.89 "Hg10 mi
8:20 AM77 °FSunny.2 mph61%29.89 "Hg10 mi
7:50 AM75 °FSunny.2 mph61%29.86 "Hg10 mi
7:20 AM70 °FSunny.3 mph64%29.86 "Hg10 mi
6:50 AM66 °FClear.6 mph73%29.86 "Hg10 mi
6:20 AM66 °FClear.2 mph73%29.86 "Hg10 mi
Weather by CustomWeather, © 2014

See weather overviewHow to use our weather pages